カタログに戻る

USA 563

運用中軍事VLEO
NORAD 65709·PAYLOAD·🇺🇸 United States

打ち上げ Sep 22, 2025 から Vandenberg Space Force Base

Loading…

次のパス (今後24時間)

TLE

古いSource: Mike McCants

元期: Aug 9, 2026, 21:32 UTC

1 65709U 25213F   26221.89765027 0.00000000  00000-0  00000-0 0    00
2 65709  70.0222 252.1310 0003000 170.5749 189.4251 14.96713700    00

AllMySatでUSA 563をリアルタイム追跡

Download on the App Store